SCP
0 0 0 0 0 0 0 0 0 0 0 0 0 0 0 0 0 0 0 0 0 0 0 0 0 0 0 0 0 0 0 0 0 0 0 0 0 0 0 0 0 0 -0 -0 -0 -0 -0 -0 0 0 0 0 -0 -0
0 0 0 0 0 0 0 0 0 0 0 0 0 0 0 0 0 0 0 0 0 0 0 0 0 0 0 0 0 0 0 0 0 0 0 0 0 0 0 0 0 0 -0 -0 -0 -0 -0 -0 -0 -0 0 0 0 -0
0 0 0 0 0 0 0 0 0 0 0 0 0 0 0 0 0 0 0 0 0 0 0 0 0 0 0 0 0 0 0 0 0 0 0 0 0 0 0 0 0 0 0 0 0 0 -0 0 -0 0 0 0 0 0
0 0 0 0 0 0 0 0 0 0 0 0 0 0 0 0 0 0 0 0 0 0 0 0 0 0 0 0 0 0 0 0 0 0 0 0 0 0 0 0 0 0 0 0 0 0 0 0 -0 0 0 0 0 0
0 0 0 0 0 0 0 0 0 0 0 0 0 0 0 0 0 0 0 0 0 0 0 0 0 0 0 0 0 0 0 0 0 0 0 0 0 0 0 0 0 0 0 0 0 0 0 0 0 0 0 0 0 0
0 0 0 0 0 0 0 0 0 0 0 0 0 0 0 0 0 0 0 0 0 0 0 0 0 0 0 0 0 0 0 0 0 0 0 0 0 0 0 0 0 0 0 0 0 0 0 0 0 0 0 0 0 0
0 0 0 0 0 0 0 0 0 0 0 0 0 0 0 0 0 0 0 0 0 0 0 0 0 0 0 0 0 0 0 0 0 0 0 0 0 0 0 0 0 0 0 0 0 0 0 0 0 0 0 0 0 0
0 0 0 0 0 0 0 0 0 0 0 0 0 0 0 0 0 0 0 0 0 0 0 0 0 0 0 0 0 0 0 0 0 0 0 0 0 0 0 0 0 0 0 0 0 0 0 0 0 0 0 0 0 0
0 0 0 0 0 0 0 0 0 0 0 0 0 0 0 0 0 0 0 0 0 0 0 0 0 0 0 0 0 0 0 0 0 0 0 0 0 0 0 0 0 0 0 0 0 0 0 0 0 0 0 0 0 0
0 0 0 0 0 0 0 0 0 0 0 0 0 0 0 0 0 0 0 0 0 0 0 0 0 0 0 0 0 0 0 0 0 0 0 0 0 0 0 0 0 0 0 0 0 0 0 0 0 0 0 0 0 0
0 0 0 0 0 0 0 0 0 0 0 0 0 0 0 0 0 0 0 0 0 0 0 0 0 0 0 0 0 0 0 0 0 0 0 0 0 0 0 0 0 0 0 0 0 0 0 0 0 0 0 0 0 0
0 0 0 0 0 0 0 0 0 0 0 0 0 0 0 0 0 0 0 0 0 0 0 0 0 0 0 0 0 0 0 0 0 0 0 0 0 0 0 0 0 0 0 0 0 0 0 0 0 -0 0 0 0 0
0 0 0 0 0 0 0 0 0 0 0 0 0 0 0 0 0 0 0 0 0 0 0 0 0 0 0 0 0 0 0 0 0 0 0 0 0 0 0 0 0 0 0 0 0 0 0 0 0 0 0 0 0 0
0 0 0 0 0 0 0 0 0 0 0 0 0 0 0 0 0 0 0 0 0 0 0 0 0 0 0 0 0 0 0 0 0 0 0 0 0 0 0 0 0 0 0 0 0 0 0 0 0 0 0 0 0 0
0 0 0 0 0 0 0 0 0 0 0 0 0 0 0 0 0 0 0 0 0 0 0 0 0 0 0 0 0 0 0 0 0 0 0 0 0 0 0 0 0 0 0 0 0 0 0 0 0 0 0 0 0 0
0 0 0 0 0 0 0 0 0 0 0 0 0 0 0 0 0 0 0 0 0 0 0 0 0 0 0 0 0 0 0 0 0 0 0 0 0 0 0 0 0 0 0 0 0 0 0 0 0 0 0 0 0 0
0 0 0 0 0 0 0 0 0 0 0 0 0 0 0 0 0 0 0 0 0 0 0 0 0 0 0 0 0 0 0 0 0 0 0 0 0 0 0 0 0 0 0 0 0 0 0 0 0 0 0 0 0 0
0 0 0 -0 0 0 0 0 0 0 0 0 0 0 0 0 0 -0 0 0 0 0 0 0 0 0 0 0 0 0 0 0 0 0 0 0 0 0 0 0 0 0 0 0 0 0 0 0 0 0 0 0 0 0
0 0 0 0 0 0 0 0 0 0 0 0 0 -0 0 0 0 0 0 0 0 0 0 0 0 0 0 0 0 0 0 0 0 0 0 0 0 0 0 0 0 0 0 0 0 0 0 0 0 0 0 0 0 0
-0 0 -0 -0 0 0 0 0 0 0 0 0 0 0 0 0 -0 -0 0 0 0 0 0 0 0 0 0 0 0 0 0 0 0 0 0 0 0 0 0 0 0 0 0 0 0 0 0 0 0 0 0 0 0 0
0 0 0 0 0 0 0 0 0 0 0 0 0 0 0 0 0 -0 0 0 0 0 0 0 0 0 0 0 0 0 0 0 0 0 0 0 0 0 0 0 0 0 0 0 0 0 0 0 0 0 0 0 0 0
0 0 0 0 0 0 0 0 -0 0 -0 0 -0 -0 -0 -0 -0 -0 0 0 -0 0 0 0 0 0 0 0 0 0 0 -0 0 0 0 0 0 0 0 0 0 -0 -0 -0 0 0 0 0 0 0 0 0 0 0
0 0 0 0 0 0 0 0 -0 0 0 0 0 -0 -0 -0 -0 -0 0 0 0 0 0 0 0 0 0 0 0 0 0 0 0 0 0 0 0 0 0 0 0 -0 0 -0 0 0 0 -0 -0 0 0 0 0 0
0 0 0 0 0 0 0 0 0 0 0 0 0 0 0 0 0 0 -0 0 0 0 0 0 0 -0 0 0 0 0 0 0 0 0 0 0 0 0 0 0 0 0 -0 -0 -0 -0 -0 0 -0 -0 0 0 -0 -0
0 0 0 0 0 0 0 0 0 -0 0 -0 0 0 0 0 0 0 0 0 0 0 0 0 0 0 0 0 0 0 0 0 0 0 0 0 0 0 0 0 0 0 -0 -0 -0 -0 -0 -0 0 0 0 -0 -0 -0
0 0 0 0 0 0 -0 0 0 -0 -0 -0 -0 0 0 -0 -0 0 0 -0 0 0 0 0 0 -0 0 0 0 0 0 0 0 0 0 0 0 0 0 -0 0 0 0 -0 -0 -0 -0 -0 -0 -0 -0 -0 -0 0
0 0 0 -0 0 -0 -0 -0 -0 0 -0 -0 -0 0 0 0 0 -0 -0 0 0 0 0 0 0 0 -0 -0 0 0 0 0 0 0 0 0 0 0 0 0 0 0 0 0 -0 -0 -0 -0 -0 -0 -0 -0 -0 -0
0 0 -0 -0 -0 -0 -0 -0 -0 0 0 0 0 0 0 -0 -0 -0 0 0 -0 -0 0 0 -0 0 0 0 0 0 0 0 0 0 0 0 0 0 0 0 0 0 -0 -0 0 0 -0 -0 -0 -0 -0 0 -0 0
0 0 0 -0 0 0 0 0 0 0 -0 -0 0 0 0 0 0 0 0 0 0 0 0 0 0 0 0 0 0 -0 0 0 0 0 0 0 0 0 0 0 0 -0 -0 -0 -0 -0 -0 0 0 -0 -0 -0 -0 0
0 0 0 0 0 0 0 0 0 -0 -0 -0 0 0 0 0 0 0 0 0 0 0 0 0 0 0 -0 -0 -0 -0 0 0 -0 0 0 0 0 0 0 0 0 -0 0 -0 -0 0 0 -0 0 0 0 -0 -0 -0
0 0 0 0 0 0 -0 -0 -0 -0 -0 0 0 0 0 0 0 -0 0 0 0 0 0 0 0 0 0 0 0 0 -0 0 0 0 0 0 0 0 0 0 0 0 0 0 0 0 0 0 -0 0 0 -0 -0 -0
0 -0 0 0 0 0 -0 -0 -0 0 0 0 0 0 0 0 0 -0 0 0 0 0 0 0 0 0 0 0 0 0 0 0 0 0 0 0 0 0 0 -0 0 0 0 0 0 0 0 0 0 0 0 -0 -0 -0
0 0 -0 -0 0 0 -0 0 0 0 0 0 0 0 0 0 0 -0 -0 0 0 0 0 0 0 0 0 0 0 0 0 0 0 0 0 0 -0 0 0 0 0 0 0 0 0 0 -0 -0 0 0 -0 -0 -0 0
Wind_Speed_500mb
57 57 57 58 58 58 57 55 55 53 51 50 49 49 45 40 40 40 43 31 24 16 58 40 9 23 38 31 8 30 24 11 10 8 7 6 4 4 1 7 8 3 8 7 7 6 11 34 22 13 6 21 37 40
57 57 58 57 56 57 57 56 54 55 53 50 51 52 55 42 42 44 49 24 25 40 56 78 70 42 49 52 38 8 22 27 10 4 8 7 7 5 7 5 4 3 7 5 4 6 5 11 9 13 21 34 34 41
53 56 55 56 57 57 57 56 55 55 55 52 51 52 54 52 45 53 54 41 35 44 60 47 44 32 22 26 25 14 3 5 7 5 4 5 9 4 6 5 3 8 15 6 8 3 11 19 10 13 27 37 35 24
52 56 57 57 59 60 58 54 54 55 55 53 52 50 51 55 50 54 58 47 28 19 12 31 18 16 15 23 24 43 35 17 12 5 6 6 6 9 5 9 8 15 11 7 3 5 19 7 7 9 29 32 27 16
52 52 56 55 56 58 57 57 55 54 53 53 50 48 46 46 52 48 52 54 40 27 11 28 69 50 38 40 36 31 28 20 12 7 7 7 10 12 13 9 13 26 5 4 5 6 9 10 18 12 18 28 9 7
53 54 56 53 53 54 56 55 53 52 52 52 48 44 42 44 36 30 17 48 52 51 13 7 22 41 35 32 56 38 31 29 19 9 8 15 43 14 7 6 13 19 6 5 6 8 8 17 7 9 9 17 6 7
53 53 51 51 54 54 54 56 56 56 53 49 46 45 49 44 40 37 14 9 27 47 12 12 14 12 25 37 46 38 38 28 25 10 12 18 18 15 6 13 27 45 32 16 17 11 12 10 13 16 14 10 3 12
50 51 52 51 51 52 54 54 53 54 51 44 41 36 34 34 32 53 43 20 37 31 13 6 10 12 41 21 22 40 23 27 20 15 12 20 24 19 9 23 46 33 11 8 6 12 20 25 21 20 20 4 13 30
49 47 47 47 48 50 50 48 49 46 38 30 22 27 28 26 25 42 52 30 28 17 9 12 6 5 41 25 20 26 33 8 16 13 11 11 8 13 12 30 16 7 9 3 11 14 17 18 18 9 14 10 22 42
42 41 42 42 44 46 44 42 30 28 24 25 32 18 13 14 25 17 15 13 15 15 16 10 28 10 19 31 20 20 18 7 6 17 16 9 13 37 44 38 16 21 18 12 3 9 18 18 17 16 20 17 24 38
39 39 41 39 39 37 34 30 26 14 28 39 19 16 15 22 25 15 11 14 16 8 18 22 55 22 23 7 8 25 7 7 6 8 12 7 7 23 55 39 25 20 14 5 5 12 15 19 21 27 24 26 27 32
39 38 38 39 38 35 30 22 20 25 26 26 15 20 24 14 10 9 9 11 13 12 22 15 36 43 31 17 7 12 8 7 10 9 8 6 5 36 40 34 26 19 11 0 9 13 14 15 16 23 35 32 33 36
39 37 35 36 33 30 28 25 27 39 30 21 14 11 11 13 13 11 16 9 9 13 18 29 13 16 36 20 14 8 12 11 7 7 8 5 31 35 30 26 23 12 3 4 3 10 14 11 6 13 27 28 30 32
38 38 38 37 36 34 27 26 33 43 27 12 11 11 11 10 11 10 12 8 19 24 33 27 17 19 18 5 7 9 10 6 8 11 10 9 34 28 30 27 28 17 3 7 2 7 10 9 10 15 15 20 27 35
34 39 39 35 31 28 28 26 31 55 21 12 12 10 15 23 17 19 22 23 31 24 26 21 19 12 6 8 8 10 9 11 9 9 5 33 38 27 22 29 25 14 11 13 11 11 12 5 7 11 15 20 28 35
30 36 42 36 34 29 25 29 31 37 10 11 14 9 15 9 9 14 29 32 23 23 24 15 7 9 8 7 9 9 7 5 5 7 29 27 21 20 29 27 21 15 12 9 7 9 7 6 7 11 16 20 30 36
28 41 36 27 31 21 30 37 27 17 11 10 15 33 24 12 22 20 24 20 11 9 4 9 10 9 9 4 6 12 4 4 32 14 24 21 20 22 22 19 11 7 7 6 6 5 7 7 8 13 19 23 30 40
34 30 18 17 25 28 27 27 15 15 14 22 13 19 24 23 22 27 29 28 18 5 5 5 12 6 7 5 4 9 17 17 18 19 18 23 24 27 18 17 16 11 8 7 8 10 9 10 13 17 21 25 31 37
27 25 24 26 32 19 12 15 11 7 21 20 32 40 34 42 49 39 34 26 24 17 9 12 6 3 4 9 6 14 9 5 14 13 19 17 24 25 16 18 17 14 13 13 15 17 17 12 17 24 30 35 43 51
26 5 14 29 32 11 8 7 14 12 12 11 18 21 30 33 43 43 33 36 35 27 10 6 6 2 2 5 12 9 17 12 11 19 30 28 23 22 16 16 18 20 23 20 21 22 25 30 34 34 34 40 52 43
26 20 16 32 28 17 5 6 12 14 15 20 33 39 28 32 39 39 35 37 35 26 10 23 33 30 18 28 21 19 11 5 4 9 27 34 35 29 29 18 16 25 25 23 23 25 31 36 41 44 48 49 42 43
29 28 24 31 8 10 10 12 11 18 12 21 26 18 22 18 26 32 35 23 29 33 38 37 37 37 29 27 32 27 22 8 13 16 14 30 47 43 34 25 24 29 29 30 29 31 29 31 38 42 49 47 42 47
28 26 8 14 7 9 13 12 11 8 7 6 6 8 9 16 31 36 16 19 30 43 38 38 40 39 40 39 38 35 26 26 24 21 17 24 36 38 40 35 27 31 31 29 23 32 32 33 39 44 45 43 41 48
22 18 8 13 12 7 10 9 11 11 12 14 14 22 16 13 18 11 6 20 25 27 32 40 38 37 37 39 39 36 36 27 34 28 29 30 36 41 46 42 36 26 28 40 32 27 33 40 39 42 47 43 48 48
9 11 9 9 12 9 7 6 7 8 10 18 22 19 7 9 3 5 13 19 29 33 34 34 37 37 40 41 39 40 31 35 26 39 40 36 34 45 47 36 44 41 36 47 45 36 45 46 46 49 50 48 51 52
8 16 13 15 12 10 10 8 10 20 17 23 11 11 4 6 12 6 7 29 26 23 16 13 22 28 19 19 24 20 25 26 31 38 40 42 37 36 54 50 42 46 43 39 52 44 48 41 48 47 51 35 50 46
6 11 19 17 17 17 10 18 17 4 6 5 5 9 3 6 4 3 22 17 18 11 13 7 10 15 15 23 24 17 24 22 22 8 37 39 33 28 39 60 57 53 44 51 51 54 51 50 51 51 44 36 50 47
12 9 13 24 28 26 14 6 5 3 5 8 7 5 3 3 5 8 21 31 26 20 10 7 7 3 5 7 14 19 21 27 26 19 39 41 35 36 32 39 56 56 57 47 43 45 42 51 48 51 49 47 50 46
12 9 3 13 22 5 6 5 4 2 4 3 2 2 3 7 22 36 33 24 20 23 17 5 4 4 6 8 9 13 12 21 35 45 43 41 37 36 33 38 47 52 61 46 43 46 42 50 53 50 39 54 50 47
23 24 14 12 6 2 5 7 8 5 6 10 8 7 14 23 26 24 21 21 17 14 12 10 4 2 4 6 2 3 6 34 41 29 41 44 44 44 45 42 61 67 55 51 45 51 44 51 50 48 45 49 50 50
19 9 8 6 2 8 12 10 17 13 15 18 18 23 28 28 22 15 13 11 6 8 9 12 11 11 4 2 1 5 12 23 31 29 27 22 36 43 50 52 64 54 43 51 53 55 57 57 58 55 56 54 52 51
16 21 17 6 5 14 11 14 18 17 20 22 26 26 26 16 6 9 15 11 3 6 12 13 14 17 14 11 7 3 7 14 24 33 30 29 39 34 46 68 49 48 52 50 52 56 57 58 58 57 56 54 52 51
9 16 11 7 2 7 12 13 13 17 22 27 28 25 24 14 3 7 9 11 13 13 11 12 5 6 5 3 5 6 6 9 21 14 30 33 43 38 63 60 48 45 50 49 52 55 53 55 54 52 58 53 49 50
Wind_Direction_500mb
286 288 289 289 289 289 289 288 288 288 286 282 278 280 283 285 291 298 300 287 247 266 286 284 282 299 296 293 281 322 328 14 351 344 345 342 303 333 359 254 281 300 313 340 335 322 330 359 346 36 268 307 324 329
286 288 289 290 291 292 291 290 288 284 284 285 281 274 277 266 278 283 291 304 275 239 269 294 298 289 273 265 258 262 290 307 17 345 17 337 316 299 316 294 270 286 234 282 232 268 309 330 312 351 338 336 330 330
287 289 291 293 294 293 291 291 289 287 282 280 282 280 273 275 257 269 284 281 260 267 288 277 309 313 260 236 223 212 116 346 77 53 328 274 272 295 286 252 251 264 228 254 332 178 274 225 347 1 353 339 340 340
284 287 290 292 294 296 296 293 290 287 283 279 275 282 279 274 274 267 262 270 255 263 265 288 261 269 298 244 229 222 227 278 295 286 246 245 270 263 268 272 268 258 285 266 246 282 304 212 344 343 348 349 21 75
281 284 286 288 290 291 295 297 295 291 286 281 275 272 284 281 271 275 265 253 238 228 278 294 287 293 241 222 222 218 223 235 251 289 221 241 256 263 255 263 254 245 169 198 235 347 272 317 344 355 349 349 357 97
281 281 285 288 289 293 295 297 297 293 289 281 275 269 275 280 279 245 257 262 248 218 279 286 280 273 258 240 219 202 210 226 211 218 257 260 246 263 262 265 273 350 352 187 239 268 272 298 306 325 315 350 324 115
279 284 287 289 291 295 297 298 296 294 290 281 275 265 265 276 259 216 219 220 202 183 241 277 269 263 185 193 192 202 206 211 210 229 226 245 271 227 238 255 269 281 269 217 247 247 294 269 272 299 268 344 214 169
279 283 283 285 289 295 296 296 296 293 289 278 271 270 269 254 242 219 227 209 182 195 197 246 261 261 185 187 183 204 188 195 206 221 247 248 265 215 251 240 254 259 202 217 64 329 326 318 291 255 253 247 186 175
277 283 289 293 294 298 300 297 295 293 285 271 266 251 204 200 208 228 229 216 198 222 245 234 242 261 180 189 186 171 196 186 218 202 224 233 213 219 220 248 226 166 123 299 329 325 317 349 7 234 235 219 201 187
273 281 288 293 297 303 307 307 301 294 261 247 211 170 197 196 193 205 180 190 212 232 253 258 243 254 218 190 190 163 183 214 215 212 210 205 245 243 244 257 208 175 166 188 32 320 319 323 316 317 265 238 229 209
271 281 285 289 294 300 301 311 312 302 195 179 177 189 164 153 168 170 181 193 192 234 224 227 221 230 237 225 203 198 184 211 227 225 185 230 242 229 245 206 165 159 168 185 260 249 274 277 276 277 274 237 215 213
267 280 281 281 280 285 282 287 257 232 199 196 164 146 154 178 198 199 196 194 202 231 195 217 221 212 220 214 202 195 207 233 233 201 182 240 201 115 132 138 137 155 153 221 304 291 292 291 282 272 234 229 209 205
266 274 277 284 283 279 279 261 239 222 213 176 182 154 179 194 221 218 198 200 211 209 190 196 170 168 206 212 221 209 194 221 257 201 210 199 138 137 145 154 156 151 173 5 316 301 302 305 243 186 203 208 210 208
267 272 268 273 273 267 272 254 230 210 196 194 178 198 206 194 233 203 266 339 327 317 330 321 161 187 182 175 148 191 226 238 247 195 210 154 147 150 166 171 159 152 163 277 270 304 298 301 237 217 215 210 207 196
266 267 266 267 260 255 255 235 203 195 196 210 208 224 214 231 247 274 292 303 305 312 324 323 213 217 167 164 227 222 198 227 224 210 112 131 147 161 170 163 171 190 257 266 278 289 287 270 228 207 201 204 201 191
256 258 255 256 251 254 239 209 199 208 217 223 228 250 239 264 284 338 316 272 287 307 312 283 246 197 183 206 211 224 219 216 34 88 124 136 144 151 152 154 165 183 197 218 256 261 249 208 196 183 181 179 182 181
237 252 263 254 228 219 199 189 174 191 228 227 227 228 240 247 248 252 278 297 302 268 205 254 233 184 145 197 204 174 300 71 104 124 121 130 149 155 177 166 170 159 136 168 219 181 193 190 174 170 169 162 170 174
243 249 207 187 195 186 194 196 189 210 230 236 242 234 218 245 245 255 254 263 276 217 226 264 291 213 163 168 333 26 22 74 135 163 138 138 140 150 156 147 145 124 131 151 140 139 155 149 158 159 158 152 157 164
243 237 225 212 199 173 165 192 224 247 235 240 236 235 233 232 243 262 256 247 253 274 284 292 259 288 108 81 73 15 57 134 174 159 133 157 154 147 144 155 141 128 133 132 130 137 139 142 151 151 147 152 150 144
213 211 223 189 184 170 212 211 193 245 258 218 245 263 253 252 256 256 245 237 228 204 208 230 213 294 8 339 8 355 356 344 160 141 128 155 166 152 143 141 131 138 138 130 129 136 139 135 135 135 140 147 143 142
202 192 221 186 201 237 238 210 220 239 253 240 238 236 237 248 239 242 240 240 236 224 232 232 259 275 273 280 300 299 304 306 338 189 167 172 170 160 169 162 136 144 148 148 139 141 148 151 156 154 149 146 144 149
189 166 160 184 184 212 255 235 242 295 281 273 272 237 256 257 254 250 249 253 251 234 234 244 249 247 252 260 276 276 271 228 196 173 171 177 167 172 176 164 145 144 151 141 145 141 155 164 168 165 166 160 151 149
177 180 138 171 218 210 256 233 231 251 257 267 345 290 254 255 268 260 251 232 241 248 253 252 250 250 249 241 244 258 260 230 204 199 198 188 188 184 179 181 168 152 153 157 158 162 165 170 165 164 165 165 165 160
155 168 169 185 199 246 243 221 226 241 264 261 277 280 278 243 242 176 236 263 268 253 241 247 247 251 244 238 241 249 240 254 223 220 212 186 188 190 186 186 191 181 170 167 171 153 154 153 165 167 162 159 161 159
138 192 191 211 214 230 232 222 223 235 249 264 274 282 265 272 268 273 277 268 273 275 256 248 232 233 235 229 231 237 236 241 227 224 206 193 182 183 183 186 186 180 174 171 174 162 152 152 148 154 153 156 157 160
217 203 201 205 206 210 210 242 243 241 261 266 248 246 50 281 247 258 24 351 340 331 327 245 226 241 248 249 234 241 225 221 222 223 200 195 192 186 184 187 173 176 177 171 176 174 171 168 172 166 176 183 170 166
236 234 210 228 241 238 241 255 271 216 258 260 353 15 3 263 315 346 342 328 332 350 6 339 243 251 249 232 229 235 222 233 227 214 198 201 200 202 190 194 182 173 178 174 180 175 173 172 175 177 182 169 165 176
251 287 238 225 223 238 262 292 279 298 42 353 333 32 4 263 268 304 315 327 329 328 324 304 318 324 337 230 242 252 238 234 219 206 206 192 195 207 205 202 195 184 182 174 177 182 174 177 180 178 183 176 174 184
244 249 179 255 246 211 243 235 222 18 31 335 313 288 272 255 298 309 324 320 319 331 345 344 285 201 253 300 320 321 226 189 179 173 177 172 175 187 191 190 189 190 181 176 175 185 178 178 177 181 183 174 174 179
253 256 253 255 244 239 303 286 327 146 190 223 219 249 273 286 311 320 308 313 317 329 345 342 357 127 251 239 334 28 318 200 170 192 189 190 188 180 177 176 170 170 176 178 181 177 173 176 172 173 169 170 174 175
233 261 263 248 176 224 247 255 258 275 285 278 269 263 282 303 319 347 352 339 336 9 15 31 37 48 73 34 99 142 131 144 179 184 181 176 182 180 185 176 171 167 175 173 175 173 173 171 173 173 173 175 176 178
231 237 252 249 230 260 266 280 281 285 292 295 290 282 273 266 332 355 356 358 75 72 50 47 47 43 38 67 37 48 170 173 179 186 183 176 179 179 171 164 162 169 172 173 175 175 177 179 178 179 178 177 180 180
200 229 223 233 312 283 265 249 268 278 261 250 248 257 269 286 88 187 75 57 64 50 25 356 342 306 298 21 50 99 106 164 176 181 184 176 174 169 170 169 174 178 175 175 176 176 177 179 182 184 175 181 184 185
Wind_Speed_850mb
57 57 57 58 58 58 57 55 55 53 51 50 49 49 45 40 40 40 43 31 24 16 58 40 9 23 38 31 8 30 24 11 10 8 7 6 4 4 1 7 8 3 8 7 7 6 11 34 22 13 6 21 37 40
57 57 58 57 56 57 57 56 54 55 53 50 51 52 55 42 42 44 49 24 25 40 56 78 70 42 49 52 38 8 22 27 10 4 8 7 7 5 7 5 4 3 7 5 4 6 5 11 9 13 21 34 34 41
53 56 55 56 57 57 57 56 55 55 55 52 51 52 54 52 45 53 54 41 35 44 60 47 44 32 22 26 25 14 3 5 7 5 4 5 9 4 6 5 3 8 15 6 8 3 11 19 10 13 27 37 35 24
52 56 57 57 59 60 58 54 54 55 55 53 52 50 51 55 50 54 58 47 28 19 12 31 18 16 15 23 24 43 35 17 12 5 6 6 6 9 5 9 8 15 11 7 3 5 19 7 7 9 29 32 27 16
52 52 56 55 56 58 57 57 55 54 53 53 50 48 46 46 52 48 52 54 40 27 11 28 69 50 38 40 36 31 28 20 12 7 7 7 10 12 13 9 13 26 5 4 5 6 9 10 18 12 18 28 9 7
53 54 56 53 53 54 56 55 53 52 52 52 48 44 42 44 36 30 17 48 52 51 13 7 22 41 35 32 56 38 31 29 19 9 8 15 43 14 7 6 13 19 6 5 6 8 8 17 7 9 9 17 6 7
53 53 51 51 54 54 54 56 56 56 53 49 46 45 49 44 40 37 14 9 27 47 12 12 14 12 25 37 46 38 38 28 25 10 12 18 18 15 6 13 27 45 32 16 17 11 12 10 13 16 14 10 3 12
50 51 52 51 51 52 54 54 53 54 51 44 41 36 34 34 32 53 43 20 37 31 13 6 10 12 41 21 22 40 23 27 20 15 12 20 24 19 9 23 46 33 11 8 6 12 20 25 21 20 20 4 13 30
49 47 47 47 48 50 50 48 49 46 38 30 22 27 28 26 25 42 52 30 28 17 9 12 6 5 41 25 20 26 33 8 16 13 11 11 8 13 12 30 16 7 9 3 11 14 17 18 18 9 14 10 22 42
42 41 42 42 44 46 44 42 30 28 24 25 32 18 13 14 25 17 15 13 15 15 16 10 28 10 19 31 20 20 18 7 6 17 16 9 13 37 44 38 16 21 18 12 3 9 18 18 17 16 20 17 24 38
39 39 41 39 39 37 34 30 26 14 28 39 19 16 15 22 25 15 11 14 16 8 18 22 55 22 23 7 8 25 7 7 6 8 12 7 7 23 55 39 25 20 14 5 5 12 15 19 21 27 24 26 27 32
39 38 38 39 38 35 30 22 20 25 26 26 15 20 24 14 10 9 9 11 13 12 22 15 36 43 31 17 7 12 8 7 10 9 8 6 5 36 40 34 26 19 11 0 9 13 14 15 16 23 35 32 33 36
39 37 35 36 33 30 28 25 27 39 30 21 14 11 11 13 13 11 16 9 9 13 18 29 13 16 36 20 14 8 12 11 7 7 8 5 31 35 30 26 23 12 3 4 3 10 14 11 6 13 27 28 30 32
38 38 38 37 36 34 27 26 33 43 27 12 11 11 11 10 11 10 12 8 19 24 33 27 17 19 18 5 7 9 10 6 8 11 10 9 34 28 30 27 28 17 3 7 2 7 10 9 10 15 15 20 27 35
34 39 39 35 31 28 28 26 31 55 21 12 12 10 15 23 17 19 22 23 31 24 26 21 19 12 6 8 8 10 9 11 9 9 5 33 38 27 22 29 25 14 11 13 11 11 12 5 7 11 15 20 28 35
30 36 42 36 34 29 25 29 31 37 10 11 14 9 15 9 9 14 29 32 23 23 24 15 7 9 8 7 9 9 7 5 5 7 29 27 21 20 29 27 21 15 12 9 7 9 7 6 7 11 16 20 30 36
28 41 36 27 31 21 30 37 27 17 11 10 15 33 24 12 22 20 24 20 11 9 4 9 10 9 9 4 6 12 4 4 32 14 24 21 20 22 22 19 11 7 7 6 6 5 7 7 8 13 19 23 30 40
34 30 18 17 25 28 27 27 15 15 14 22 13 19 24 23 22 27 29 28 18 5 5 5 12 6 7 5 4 9 17 17 18 19 18 23 24 27 18 17 16 11 8 7 8 10 9 10 13 17 21 25 31 37
27 25 24 26 32 19 12 15 11 7 21 20 32 40 34 42 49 39 34 26 24 17 9 12 6 3 4 9 6 14 9 5 14 13 19 17 24 25 16 18 17 14 13 13 15 17 17 12 17 24 30 35 43 51
26 5 14 29 32 11 8 7 14 12 12 11 18 21 30 33 43 43 33 36 35 27 10 6 6 2 2 5 12 9 17 12 11 19 30 28 23 22 16 16 18 20 23 20 21 22 25 30 34 34 34 40 52 43
26 20 16 32 28 17 5 6 12 14 15 20 33 39 28 32 39 39 35 37 35 26 10 23 33 30 18 28 21 19 11 5 4 9 27 34 35 29 29 18 16 25 25 23 23 25 31 36 41 44 48 49 42 43
29 28 24 31 8 10 10 12 11 18 12 21 26 18 22 18 26 32 35 23 29 33 38 37 37 37 29 27 32 27 22 8 13 16 14 30 47 43 34 25 24 29 29 30 29 31 29 31 38 42 49 47 42 47
28 26 8 14 7 9 13 12 11 8 7 6 6 8 9 16 31 36 16 19 30 43 38 38 40 39 40 39 38 35 26 26 24 21 17 24 36 38 40 35 27 31 31 29 23 32 32 33 39 44 45 43 41 48
22 18 8 13 12 7 10 9 11 11 12 14 14 22 16 13 18 11 6 20 25 27 32 40 38 37 37 39 39 36 36 27 34 28 29 30 36 41 46 42 36 26 28 40 32 27 33 40 39 42 47 43 48 48
9 11 9 9 12 9 7 6 7 8 10 18 22 19 7 9 3 5 13 19 29 33 34 34 37 37 40 41 39 40 31 35 26 39 40 36 34 45 47 36 44 41 36 47 45 36 45 46 46 49 50 48 51 52
8 16 13 15 12 10 10 8 10 20 17 23 11 11 4 6 12 6 7 29 26 23 16 13 22 28 19 19 24 20 25 26 31 38 40 42 37 36 54 50 42 46 43 39 52 44 48 41 48 47 51 35 50 46
6 11 19 17 17 17 10 18 17 4 6 5 5 9 3 6 4 3 22 17 18 11 13 7 10 15 15 23 24 17 24 22 22 8 37 39 33 28 39 60 57 53 44 51 51 54 51 50 51 51 44 36 50 47
12 9 13 24 28 26 14 6 5 3 5 8 7 5 3 3 5 8 21 31 26 20 10 7 7 3 5 7 14 19 21 27 26 19 39 41 35 36 32 39 56 56 57 47 43 45 42 51 48 51 49 47 50 46
12 9 3 13 22 5 6 5 4 2 4 3 2 2 3 7 22 36 33 24 20 23 17 5 4 4 6 8 9 13 12 21 35 45 43 41 37 36 33 38 47 52 61 46 43 46 42 50 53 50 39 54 50 47
23 24 14 12 6 2 5 7 8 5 6 10 8 7 14 23 26 24 21 21 17 14 12 10 4 2 4 6 2 3 6 34 41 29 41 44 44 44 45 42 61 67 55 51 45 51 44 51 50 48 45 49 50 50
19 9 8 6 2 8 12 10 17 13 15 18 18 23 28 28 22 15 13 11 6 8 9 12 11 11 4 2 1 5 12 23 31 29 27 22 36 43 50 52 64 54 43 51 53 55 57 57 58 55 56 54 52 51
16 21 17 6 5 14 11 14 18 17 20 22 26 26 26 16 6 9 15 11 3 6 12 13 14 17 14 11 7 3 7 14 24 33 30 29 39 34 46 68 49 48 52 50 52 56 57 58 58 57 56 54 52 51
9 16 11 7 2 7 12 13 13 17 22 27 28 25 24 14 3 7 9 11 13 13 11 12 5 6 5 3 5 6 6 9 21 14 30 33 43 38 63 60 48 45 50 49 52 55 53 55 54 52 58 53 49 50
Wind_Direction_850mb
286 288 289 289 289 289 289 288 288 288 286 282 278 280 283 285 291 298 300 287 247 266 286 284 282 299 296 293 281 322 328 14 351 344 345 342 303 333 359 254 281 300 313 340 335 322 330 359 346 36 268 307 324 329
286 288 289 290 291 292 291 290 288 284 284 285 281 274 277 266 278 283 291 304 275 239 269 294 298 289 273 265 258 262 290 307 17 345 17 337 316 299 316 294 270 286 234 282 232 268 309 330 312 351 338 336 330 330
287 289 291 293 294 293 291 291 289 287 282 280 282 280 273 275 257 269 284 281 260 267 288 277 309 313 260 236 223 212 116 346 77 53 328 274 272 295 286 252 251 264 228 254 332 178 274 225 347 1 353 339 340 340
284 287 290 292 294 296 296 293 290 287 283 279 275 282 279 274 274 267 262 270 255 263 265 288 261 269 298 244 229 222 227 278 295 286 246 245 270 263 268 272 268 258 285 266 246 282 304 212 344 343 348 349 21 75
281 284 286 288 290 291 295 297 295 291 286 281 275 272 284 281 271 275 265 253 238 228 278 294 287 293 241 222 222 218 223 235 251 289 221 241 256 263 255 263 254 245 169 198 235 347 272 317 344 355 349 349 357 97
281 281 285 288 289 293 295 297 297 293 289 281 275 269 275 280 279 245 257 262 248 218 279 286 280 273 258 240 219 202 210 226 211 218 257 260 246 263 262 265 273 350 352 187 239 268 272 298 306 325 315 350 324 115
279 284 287 289 291 295 297 298 296 294 290 281 275 265 265 276 259 216 219 220 202 183 241 277 269 263 185 193 192 202 206 211 210 229 226 245 271 227 238 255 269 281 269 217 247 247 294 269 272 299 268 344 214 169
279 283 283 285 289 295 296 296 296 293 289 278 271 270 269 254 242 219 227 209 182 195 197 246 261 261 185 187 183 204 188 195 206 221 247 248 265 215 251 240 254 259 202 217 64 329 326 318 291 255 253 247 186 175
277 283 289 293 294 298 300 297 295 293 285 271 266 251 204 200 208 228 229 216 198 222 245 234 242 261 180 189 186 171 196 186 218 202 224 233 213 219 220 248 226 166 123 299 329 325 317 349 7 234 235 219 201 187
273 281 288 293 297 303 307 307 301 294 261 247 211 170 197 196 193 205 180 190 212 232 253 258 243 254 218 190 190 163 183 214 215 212 210 205 245 243 244 257 208 175 166 188 32 320 319 323 316 317 265 238 229 209
271 281 285 289 294 300 301 311 312 302 195 179 177 189 164 153 168 170 181 193 192 234 224 227 221 230 237 225 203 198 184 211 227 225 185 230 242 229 245 206 165 159 168 185 260 249 274 277 276 277 274 237 215 213
267 280 281 281 280 285 282 287 257 232 199 196 164 146 154 178 198 199 196 194 202 231 195 217 221 212 220 214 202 195 207 233 233 201 182 240 201 115 132 138 137 155 153 221 304 291 292 291 282 272 234 229 209 205
266 274 277 284 283 279 279 261 239 222 213 176 182 154 179 194 221 218 198 200 211 209 190 196 170 168 206 212 221 209 194 221 257 201 210 199 138 137 145 154 156 151 173 5 316 301 302 305 243 186 203 208 210 208
267 272 268 273 273 267 272 254 230 210 196 194 178 198 206 194 233 203 266 339 327 317 330 321 161 187 182 175 148 191 226 238 247 195 210 154 147 150 166 171 159 152 163 277 270 304 298 301 237 217 215 210 207 196
266 267 266 267 260 255 255 235 203 195 196 210 208 224 214 231 247 274 292 303 305 312 324 323 213 217 167 164 227 222 198 227 224 210 112 131 147 161 170 163 171 190 257 266 278 289 287 270 228 207 201 204 201 191
256 258 255 256 251 254 239 209 199 208 217 223 228 250 239 264 284 338 316 272 287 307 312 283 246 197 183 206 211 224 219 216 34 88 124 136 144 151 152 154 165 183 197 218 256 261 249 208 196 183 181 179 182 181
237 252 263 254 228 219 199 189 174 191 228 227 227 228 240 247 248 252 278 297 302 268 205 254 233 184 145 197 204 174 300 71 104 124 121 130 149 155 177 166 170 159 136 168 219 181 193 190 174 170 169 162 170 174
243 249 207 187 195 186 194 196 189 210 230 236 242 234 218 245 245 255 254 263 276 217 226 264 291 213 163 168 333 26 22 74 135 163 138 138 140 150 156 147 145 124 131 151 140 139 155 149 158 159 158 152 157 164
243 237 225 212 199 173 165 192 224 247 235 240 236 235 233 232 243 262 256 247 253 274 284 292 259 288 108 81 73 15 57 134 174 159 133 157 154 147 144 155 141 128 133 132 130 137 139 142 151 151 147 152 150 144
213 211 223 189 184 170 212 211 193 245 258 218 245 263 253 252 256 256 245 237 228 204 208 230 213 294 8 339 8 355 356 344 160 141 128 155 166 152 143 141 131 138 138 130 129 136 139 135 135 135 140 147 143 142
202 192 221 186 201 237 238 210 220 239 253 240 238 236 237 248 239 242 240 240 236 224 232 232 259 275 273 280 300 299 304 306 338 189 167 172 170 160 169 162 136 144 148 148 139 141 148 151 156 154 149 146 144 149
189 166 160 184 184 212 255 235 242 295 281 273 272 237 256 257 254 250 249 253 251 234 234 244 249 247 252 260 276 276 271 228 196 173 171 177 167 172 176 164 145 144 151 141 145 141 155 164 168 165 166 160 151 149
177 180 138 171 218 210 256 233 231 251 257 267 345 290 254 255 268 260 251 232 241 248 253 252 250 250 249 241 244 258 260 230 204 199 198 188 188 184 179 181 168 152 153 157 158 162 165 170 165 164 165 165 165 160
155 168 169 185 199 246 243 221 226 241 264 261 277 280 278 243 242 176 236 263 268 253 241 247 247 251 244 238 241 249 240 254 223 220 212 186 188 190 186 186 191 181 170 167 171 153 154 153 165 167 162 159 161 159
138 192 191 211 214 230 232 222 223 235 249 264 274 282 265 272 268 273 277 268 273 275 256 248 232 233 235 229 231 237 236 241 227 224 206 193 182 183 183 186 186 180 174 171 174 162 152 152 148 154 153 156 157 160
217 203 201 205 206 210 210 242 243 241 261 266 248 246 50 281 247 258 24 351 340 331 327 245 226 241 248 249 234 241 225 221 222 223 200 195 192 186 184 187 173 176 177 171 176 174 171 168 172 166 176 183 170 166
236 234 210 228 241 238 241 255 271 216 258 260 353 15 3 263 315 346 342 328 332 350 6 339 243 251 249 232 229 235 222 233 227 214 198 201 200 202 190 194 182 173 178 174 180 175 173 172 175 177 182 169 165 176
251 287 238 225 223 238 262 292 279 298 42 353 333 32 4 263 268 304 315 327 329 328 324 304 318 324 337 230 242 252 238 234 219 206 206 192 195 207 205 202 195 184 182 174 177 182 174 177 180 178 183 176 174 184
244 249 179 255 246 211 243 235 222 18 31 335 313 288 272 255 298 309 324 320 319 331 345 344 285 201 253 300 320 321 226 189 179 173 177 172 175 187 191 190 189 190 181 176 175 185 178 178 177 181 183 174 174 179
253 256 253 255 244 239 303 286 327 146 190 223 219 249 273 286 311 320 308 313 317 329 345 342 357 127 251 239 334 28 318 200 170 192 189 190 188 180 177 176 170 170 176 178 181 177 173 176 172 173 169 170 174 175
233 261 263 248 176 224 247 255 258 275 285 278 269 263 282 303 319 347 352 339 336 9 15 31 37 48 73 34 99 142 131 144 179 184 181 176 182 180 185 176 171 167 175 173 175 173 173 171 173 173 173 175 176 178
231 237 252 249 230 260 266 280 281 285 292 295 290 282 273 266 332 355 356 358 75 72 50 47 47 43 38 67 37 48 170 173 179 186 183 176 179 179 171 164 162 169 172 173 175 175 177 179 178 179 178 177 180 180
200 229 223 233 312 283 265 249 268 278 261 250 248 257 269 286 88 187 75 57 64 50 25 356 342 306 298 21 50 99 106 164 176 181 184 176 174 169 170 169 174 178 175 175 176 176 177 179 182 184 175 181 184 185